TimeEST,TemperatureF,Dew PointF,Humidity,Sea Level PressureIn,VisibilityMPH,Wind Direction,Wind SpeedMPH,Gust SpeedMPH,PrecipitationIn,Events,Conditions,WindDirDegrees,DateUTC
12:53 AM,24.1,19.0,81,30.38,10.0,WNW,5.8,-,N/A,,Clear,300,2013-03-09 05:53:00
1:53 AM,21.9,18.0,85,30.38,10.0,WNW,3.5,-,N/A,,Clear,300,2013-03-09 06:53:00
2:53 AM,21.9,17.1,82,30.36,8.0,Calm,Calm,-,N/A,,Clear,0,2013-03-09 07:53:00
3:53 AM,21.9,19.0,89,30.35,10.0,NW,3.5,-,N/A,,Clear,320,2013-03-09 08:53:00
4:53 AM,18.0,14.0,84,30.35,9.0,Calm,Calm,-,N/A,,Clear,0,2013-03-09 09:53:00
5:53 AM,16.0,12.0,84,30.37,10.0,Calm,Calm,-,N/A,,Clear,0,2013-03-09 10:53:00
6:53 AM,18.0,14.0,84,30.39,7.0,Calm,Calm,-,N/A,,Clear,0,2013-03-09 11:53:00
7:53 AM,23.0,19.9,88,30.40,9.0,Calm,Calm,-,N/A,,Clear,0,2013-03-09 12:53:00
8:53 AM,28.9,24.1,82,30.41,10.0,Calm,Calm,-,N/A,,Clear,0,2013-03-09 13:53:00
9:53 AM,34.0,24.1,67,30.39,10.0,Calm,Calm,-,N/A,,Clear,0,2013-03-09 14:53:00
10:53 AM,37.9,21.9,53,30.36,10.0,SE,3.5,-,N/A,,Clear,130,2013-03-09 15:53:00
11:53 AM,39.9,19.0,43,30.35,10.0,SSW,4.6,-,N/A,,Clear,200,2013-03-09 16:53:00
12:53 PM,43.0,18.0,37,30.33,10.0,SE,3.5,-,N/A,,Clear,140,2013-03-09 17:53:00
1:53 PM,46.9,15.1,28,30.32,10.0,Calm,Calm,-,N/A,,Clear,0,2013-03-09 18:53:00
2:53 PM,48.0,17.1,29,30.29,10.0,ESE,5.8,-,N/A,,Clear,120,2013-03-09 19:53:00
3:53 PM,48.9,16.0,27,30.28,10.0,ESE,4.6,-,N/A,,Clear,120,2013-03-09 20:53:00
4:53 PM,48.9,17.1,28,30.28,10.0,SE,4.6,-,N/A,,Clear,130,2013-03-09 21:53:00
5:53 PM,48.0,19.0,32,30.27,10.0,ESE,5.8,-,N/A,,Clear,120,2013-03-09 22:53:00
6:53 PM,39.9,21.9,49,30.29,10.0,Calm,Calm,-,N/A,,Clear,0,2013-03-09 23:53:00
7:53 PM,37.0,21.0,52,30.29,10.0,Calm,Calm,-,N/A,,Clear,0,2013-03-10 00:53:00
8:53 PM,34.0,19.9,56,30.26,10.0,SSE,4.6,-,N/A,,Clear,150,2013-03-10 01:53:00
9:53 PM,30.9,21.9,69,30.27,10.0,Calm,Calm,-,N/A,,Clear,0,2013-03-10 02:53:00
10:53 PM,30.9,19.9,64,30.25,9.0,ESE,4.6,-,N/A,,Clear,120,2013-03-10 03:53:00
11:53 PM,39.0,18.0,43,30.22,10.0,SE,8.1,-,N/A,,Clear,140,2013-03-10 04:53:00